Showing default

COSMOS 1563, 15002

Orbit data source: Space-Track

COSMOS 1563, 15002 is a payload satellite owned by GUKOS (CIS) in LEO that was launched on Mon, 28 May 1984 UTC via a KOSMOS 11K65M launch vehicle from the Plesetsk Missile And Space Complex (PKMTR). Payload-class satellites include a variety of spacecraft equipped with specific instruments for various scientific and technological missions. These include communications satellites like Starlink; space stations such as the ISS; scientific satellites like the Hubble; Earth observation satellites from companies like Planet Labs, Umbra, and HawkEye 360; GPS; miniature CubeSats for education and research; and military/defense satellites.

Loading next visibility...
Identifier
15002, 1984-052E
Orbit
LEO
Country
Flag of CISCIS
Related business
Manufacturer
NPO PM
Mission
Spacecraft
Bus & Motor
STRELA-1 11F625, Unknown motor
Mass
60 kg wet, 60 kg dry
Launch date (UTC)
1984-05-28 (42 years ago)
Launch vehicle
KOSMOS 11K65M
Launch site
Plesetsk Missile And Space Complex (PKMTR)
Object type
Payload
Rocket body
Debris
Shape & HBR
Unknown
Radar Cross Section
Medium (>0.1 m² and <1 m²)

Expand to show TLE details & history
Last TLE update: 9 hours ago

TLE from 9 hours ago
0 COSMOS 1563
1 15002U 84052E   26126.94811375 -.00000007  00000-0  57990-4 0  9994
2 15002  74.0111 299.3878 0024170  93.1300  27.9423 12.51839764649046
Epoch: 2026-05-06T22:45Z
TLE epoch observation values (Epoch: 2026-05-06T22:45:17.027Z)
Latitude
55.41022°
Longitude
-111.15747°
Altitude
1,448.886 km
Speed
7.15 km/s
True Right ascension
06h 19m 51s
True Declination
55° 15' 49"
Sunlit
Object was in daylight at epoch
Visualization orbit readout
Latitude
Unknown
Longitude
Unknown
Altitude
Unknown
Speed
Unknown
Apparent Right ascension
Unknown
Apparent Declination
Unknown
Sunlit
N/A
Visualization observer readout
Local Sidereal Time
15:59:15
Azimuth
Unknown
Elevation
Unknown
Doppler factor
Unknown
Orbital elements
Apogee altitude
1,473.575 km
Perigee altitude
1,435.712 km
Semi-major axis
7,832.78 km
Eccentricity
0.00242
Inclination
74.0111°
RAAN
299.3878°
Arg. of periapsis
93.13°
True anomaly
28.07243°
Mean anomaly
27.9423°
Eccentric anomaly
28.00733°
Mean motion
3.1309 °/min
Orbital period
114.98 mins
BSTAR
0.00005799
Loading maneuver chart data...
Computing Atmospheric mass density...
Loading historical data...
Loading historical data...
Loading historical data...
Loading historical data...
Loading historical data...
Loading historical data...
Loading historical data...

Documentation

Showing up to 5 results
|